RH
50 57 51 46 29 33 26 16 16 18 20 22 21 11 7 10 9 22 30 9 27 37 69 62 39 84 94 90 88 86 84 88 92 84 95 99 100 100 99 99 98 98 100
55 60 66 47 51 46 28 20 13 17 18 21 19 11 8 9 9 9 13 8 8 12 21 18 10 16 32 52 86 91 92 93 87 84 76 92 100 100 100 100 100 96 97
51 53 66 52 67 26 16 18 14 16 22 18 19 14 14 16 10 10 10 13 9 13 17 18 11 7 6 8 21 30 62 97 93 88 78 82 99 97 98 97 100 99 94
42 40 45 45 30 18 15 15 14 13 10 10 10 12 16 13 12 14 14 16 33 32 41 53 11 8 7 6 8 8 11 63 97 94 88 87 88 82 95 100 95 98 95
46 41 41 37 27 21 19 19 18 15 11 11 12 16 20 11 9 12 12 14 26 45 59 63 31 9 8 8 8 8 8 15 82 97 96 92 88 30 89 99 99 99 99
66 63 48 41 30 26 25 24 23 17 12 12 15 22 27 13 9 11 14 17 33 78 87 92 40 11 12 15 11 11 10 13 33 97 100 96 70 39 39 100 100 99 100
82 89 92 66 44 38 36 62 51 32 49 14 19 65 93 30 9 14 28 65 52 62 88 100 99 25 12 30 66 33 24 14 12 59 86 91 87 37 33 58 94 100 100
83 86 91 87 83 86 83 82 80 81 82 88 93 92 95 30 9 33 73 86 88 97 97 86 97 75 10 14 76 73 71 42 46 50 79 70 80 60 46 93 88 100 98
84 84 88 87 79 82 76 77 74 65 64 79 87 93 98 65 13 46 72 73 89 100 100 42 18 26 9 9 45 55 20 65 76 100 100 100 100 98 39 63 44 80 96
85 82 89 88 82 82 79 81 74 70 84 80 86 32 70 87 16 28 70 85 100 100 100 100 32 10 9 9 13 14 15 47 98 100 100 100 100 100 97 68 99 100 99
84 90 93 93 90 84 89 88 86 90 81 79 25 17 26 32 22 11 18 79 100 100 100 100 51 11 11 11 12 14 25 87 100 100 100 100 100 100 100 100 88 100 99
88 93 92 93 91 93 96 96 97 99 69 40 97 94 90 30 21 12 11 10 12 97 98 69 17 12 12 13 14 16 71 100 100 100 100 100 100 100 100 100 100 100 99
91 89 89 93 91 89 96 96 96 100 96 95 100 100 100 100 77 37 19 12 12 24 13 13 13 14 25 98 55 81 100 100 100 100 100 100 100 100 100 100 100 97 100
86 83 86 87 83 81 93 90 90 94 92 94 95 98 100 100 100 100 100 74 48 64 18 44 38 68 92 100 100 100 100 100 100 100 100 100 100 100 100 99 100 96 95
78 78 81 78 72 75 80 83 82 89 81 85 95 99 100 99 96 45 24 46 19 14 16 92 100 100 100 100 100 100 100 100 100 100 100 100 98 97 93 91 93 90 82
74 77 76 70 71 74 73 80 76 84 78 78 95 98 87 90 71 23 13 13 13 13 85 100 100 100 100 100 100 100 100 100 100 100 100 100 96 90 87 83 85 85 74
74 73 72 72 71 70 69 78 78 78 72 63 64 54 41 32 37 23 15 15 16 21 100 100 100 100 100 88 89 91 96 100 100 98 100 100 100 94 89 85 88 88 79
71 68 69 72 69 67 67 80 100 80 71 65 65 63 52 38 44 36 25 26 97 89 89 94 100 99 92 86 94 99 100 100 100 100 100 100 100 99 96 92 90 92 83
70 66 69 75 75 70 77 86 95 100 100 100 100 100 85 47 62 59 45 84 92 94 84 85 94 98 100 99 100 100 100 100 100 100 100 100 100 100 97 97 97 94 82
70 68 62 66 70 71 91 92 98 100 100 99 100 100 98 71 60 93 98 100 98 98 93 93 99 100 100 100 100 100 100 100 100 100 100 100 100 100 99 98 98 94 88
67 60 56 70 89 82 93 89 97 98 100 100 100 100 99 94 100 100 100 100 100 100 98 100 100 100 100 100 100 100 100 100 100 100 100 100 100 100 100 100 100 98 95
64 52 53 90 97 96 95 96 94 97 100 100 100 100 100 90 100 100 100 100 100 82 69 70 100 100 100 100 100 100 100 100 100 100 100 100 100 100 100 100 100 100 100
92 64 80 97 98 92 91 95 95 97 98 100 100 94 92 100 100 100 100 100 100 91 64 37 61 55 100 84 94 100 100 100 100 100 100 100 100 100 100 100 100 100 100
91 73 80 89 86 88 94 92 93 96 99 100 100 100 99 100 100 100 100 100 100 72 35 29 34 36 41 43 92 100 100 100 100 100 99 100 100 100 100 100 100 100 100
89 78 94 91 79 77 97 99 100 100 100 100 100 100 100 100 100 100 100 99 51 58 33 33 36 40 39 41 47 57 61 59 76 78 92 100 100 100 100 100 100 100 100
86 94 95 82 78 96 97 100 100 100 100 100 98 100 100 100 100 100 100 89 35 31 33 36 38 40 41 49 51 47 55 62 75 78 84 98 100 100 100 100 100 100 100
Wind_Speed
15 12 10 9 8 7 6 5 4 2 1 1 2 3 4 5 5 5 7 8 8 9 10 12 13 14 13 14 14 14 13 15 19 22 23 25 27 27 21 22 23 22 20
16 13 12 9 9 8 7 5 4 3 2 1 1 1 3 4 5 6 8 9 9 11 11 13 15 15 16 16 16 17 17 15 17 21 22 26 25 27 20 20 24 26 22
19 17 13 12 12 11 8 7 6 6 5 4 3 2 2 4 4 6 7 8 10 11 12 14 15 16 17 19 19 20 20 17 16 17 18 19 23 26 24 18 22 24 26
21 20 17 17 12 11 9 8 7 7 6 5 3 3 3 3 4 5 7 8 10 11 12 13 14 16 17 19 19 20 22 19 18 17 18 19 22 27 23 26 25 24 23
22 21 20 17 14 11 10 9 8 8 7 5 4 3 3 3 4 5 6 9 10 10 11 12 14 16 16 18 20 21 22 22 19 19 20 21 24 32 30 26 23 21 17
21 20 21 18 15 12 11 9 9 8 7 6 5 4 3 3 3 6 8 9 10 11 11 12 14 15 15 17 21 21 22 22 21 19 19 22 26 29 28 24 21 23 20
22 21 19 17 15 14 12 10 8 7 7 5 5 4 3 2 2 4 6 12 11 12 12 14 14 16 14 16 20 21 20 20 21 18 19 22 24 28 27 25 22 18 16
23 22 20 18 16 15 14 12 11 9 8 7 6 6 2 2 1 6 11 4 4 7 8 9 11 13 14 13 12 13 15 17 19 19 18 19 20 23 22 19 18 14 8
25 25 21 20 19 17 16 14 12 11 10 9 7 6 4 5 2 6 9 0 3 5 6 10 9 12 12 13 12 12 13 14 15 16 17 18 18 21 22 19 22 20 17
26 28 24 21 20 19 17 15 13 12 11 9 9 10 10 5 2 6 7 1 2 2 6 8 12 12 12 12 13 13 14 15 17 16 16 16 18 19 21 21 20 20 20
24 23 23 21 22 23 18 16 14 12 11 11 10 9 10 7 2 3 3 2 3 2 3 5 12 12 13 14 14 14 15 15 14 14 14 16 17 18 19 19 20 17 18
25 24 23 21 20 20 19 17 15 14 16 10 9 7 5 5 4 1 1 2 1 1 2 7 11 11 13 12 13 14 14 12 12 13 14 16 18 19 19 18 19 17 22
25 24 23 21 20 19 19 18 16 14 12 11 10 9 5 2 6 4 1 2 3 5 7 8 10 11 12 11 15 15 13 13 13 13 14 16 17 17 17 17 14 15 12
25 24 23 22 20 20 17 17 15 14 12 12 11 10 8 6 4 1 5 8 8 6 9 9 10 12 15 13 12 11 11 12 12 13 14 14 15 16 16 17 16 16 14
25 24 23 21 21 20 17 15 14 13 13 13 13 12 11 9 13 7 4 5 5 6 6 6 5 6 6 8 8 10 10 10 11 12 13 13 14 16 15 16 15 15 15
25 25 23 22 22 21 19 21 21 20 21 21 18 17 16 17 11 8 3 4 5 5 4 3 5 5 6 6 7 7 8 10 10 11 11 12 13 14 15 15 15 15 15
25 24 23 23 22 22 21 18 25 24 20 20 17 16 13 10 10 5 4 4 3 3 2 3 3 4 5 5 6 7 7 9 9 9 10 11 11 13 14 14 16 16 15
26 26 25 24 25 25 24 21 17 18 18 18 17 14 13 8 5 4 4 5 5 4 1 2 2 3 4 4 5 6 6 6 7 7 8 9 10 11 12 14 15 16 16
30 30 29 28 28 28 25 22 16 15 14 12 12 13 14 11 6 6 5 1 3 2 2 2 3 3 3 3 5 5 5 6 7 7 7 8 9 10 11 12 13 15 16
32 30 31 27 28 28 23 20 18 16 15 15 14 13 13 11 5 4 4 3 2 3 3 3 4 3 3 3 4 5 4 4 5 5 6 7 8 8 9 11 12 14 15
34 31 27 25 24 24 22 21 18 17 16 16 13 15 18 9 6 8 6 5 4 3 5 4 4 4 4 4 3 4 3 3 4 4 4 5 6 8 8 9 11 12 14
32 29 29 25 23 23 21 19 19 18 16 15 14 19 22 16 9 9 8 9 6 7 7 7 5 5 5 5 4 3 3 3 4 3 3 4 5 6 7 8 10 11 13
30 29 27 24 22 22 21 20 20 19 16 16 18 22 22 16 12 11 10 15 7 7 9 8 8 7 6 6 5 3 2 4 5 6 2 2 4 6 6 8 9 11 12
30 29 29 26 25 23 22 22 20 18 17 17 18 16 11 13 13 14 15 14 9 9 10 9 10 9 10 8 4 4 4 8 4 4 8 2 3 6 6 7 8 9 11
31 29 29 28 27 24 21 20 19 18 18 17 16 14 12 14 13 14 13 13 11 10 10 9 10 10 9 8 8 8 11 8 8 6 4 4 5 8 6 8 9 9 10
29 28 28 27 24 22 21 19 18 18 18 17 16 16 15 14 13 13 14 12 10 10 10 10 10 9 9 8 9 9 8 8 9 7 7 4 5 6 7 7 9 10 10
Wind_Direction
185 180 187 196 200 185 195 203 201 190 123 41 17 1 11 21 25 36 32 28 30 23 19 11 11 10 6 360 3 359 355 346 334 335 345 348 354 353 0 2 2 0 348
186 181 187 195 187 180 190 193 189 185 178 164 104 22 32 35 35 37 42 34 31 28 27 22 20 17 14 9 8 4 357 358 344 343 347 348 357 355 1 4 357 8 0
194 187 189 192 190 200 197 199 198 193 183 175 158 136 81 51 44 46 48 40 37 34 29 26 22 21 20 17 14 9 4 5 353 354 350 353 354 5 12 17 16 352 7
198 200 208 206 210 208 210 207 199 196 192 182 167 154 124 90 65 55 50 48 39 33 31 22 24 24 23 21 18 13 11 12 3 6 359 360 1 8 19 15 19 1 345
197 204 209 208 206 207 203 198 194 189 179 165 148 132 116 90 68 61 53 46 42 35 29 27 19 22 23 24 20 17 15 15 10 10 4 3 3 10 11 10 8 16 347
191 195 202 203 203 202 197 193 189 183 174 162 139 120 110 73 73 63 57 46 43 34 30 18 15 20 18 24 20 15 17 18 17 14 6 4 4 5 7 9 358 4 357
183 185 188 190 192 193 187 177 176 174 169 164 145 84 62 15 66 69 72 28 30 34 31 22 10 11 18 31 10 4 6 11 16 16 10 6 1 3 2 1 5 360 337
186 185 183 180 180 178 175 176 170 173 167 161 157 154 165 279 77 104 96 77 29 24 17 37 21 5 14 20 20 359 4 6 10 12 11 7 4 1 8 5 1 360 348
185 185 183 183 182 182 181 181 177 176 172 173 170 163 150 284 149 135 93 22 355 2 8 356 8 5 10 12 19 10 6 8 8 10 8 4 7 6 10 10 16 13 8
185 185 184 183 185 185 183 181 180 180 177 179 184 193 169 264 156 161 128 140 310 353 348 345 353 357 1 8 10 8 6 9 3 6 1 4 4 7 11 17 16 15 13
181 183 184 182 186 190 181 183 179 181 173 190 202 196 198 209 212 149 202 145 161 348 342 345 330 351 357 1 5 7 10 14 4 4 2 0 3 7 8 13 12 14 15
178 180 183 183 183 184 187 184 184 189 198 183 185 177 201 217 246 117 311 349 331 57 337 321 334 344 350 355 1 2 14 19 7 5 4 2 3 4 3 10 6 12 1
177 178 181 183 183 182 188 185 185 192 186 185 185 180 200 235 296 309 281 334 344 338 332 331 338 347 359 360 5 22 13 11 9 7 4 1 359 2 358 5 13 15 6
176 178 181 183 183 181 187 185 187 191 189 189 188 186 197 194 212 320 331 346 345 345 341 338 350 4 4 10 360 8 7 9 8 4 0 359 357 1 4 5 9 7 4
177 179 182 184 181 183 185 186 189 193 195 195 191 189 193 199 223 243 250 280 307 326 331 352 352 351 349 351 356 358 359 8 6 2 359 2 1 358 7 4 9 8 9
179 182 184 183 180 184 180 187 188 207 197 192 187 201 203 213 236 259 247 288 323 335 9 354 342 346 344 347 352 357 354 358 2 1 359 360 2 0 6 5 7 11 8
183 184 185 183 182 183 185 186 196 204 201 206 210 218 226 228 228 265 306 328 332 346 23 339 333 338 340 346 353 354 355 348 359 360 358 359 6 1 5 8 5 8 10
184 186 186 184 183 184 187 188 192 193 195 200 203 219 228 217 235 269 308 329 357 349 337 316 315 327 335 342 344 346 343 344 353 1 355 2 9 6 6 7 5 5 7
185 189 194 188 188 189 188 192 196 186 184 187 186 204 230 234 242 261 275 212 225 262 294 300 303 309 316 329 327 336 347 345 5 3 356 359 11 11 4 7 4 4 7
196 200 202 200 197 196 191 187 190 191 190 194 191 200 226 246 229 295 239 237 238 237 273 280 281 280 287 306 319 329 340 337 336 346 350 354 3 9 3 2 2 3 0
199 201 200 197 194 195 190 188 194 196 197 200 205 213 234 225 207 233 241 246 230 237 268 256 263 277 285 293 307 300 311 316 323 337 340 345 360 359 359 356 358 359 355
199 198 194 189 190 189 189 189 195 198 200 202 206 211 228 235 216 228 230 236 239 247 256 258 247 257 263 259 270 280 295 316 308 304 320 348 347 342 351 350 352 355 353
198 195 189 186 189 193 188 190 196 199 201 201 211 229 232 220 215 222 225 244 241 244 254 262 262 261 265 285 273 260 239 263 269 278 270 315 335 324 343 342 345 347 349
194 196 194 187 191 194 194 192 195 198 199 198 208 223 216 199 210 216 227 246 232 249 263 267 264 267 269 269 271 279 273 255 226 256 284 277 318 310 325 330 331 340 339
196 195 194 193 197 202 195 192 195 196 197 200 202 206 205 205 213 221 227 235 244 248 265 267 269 272 269 266 266 250 258 270 248 260 262 306 300 313 324 325 320 335 333
198 197 200 200 200 196 197 192 191 194 194 197 204 204 207 211 213 224 232 242 250 252 261 266 268 263 270 271 269 273 269 259 250 255 264 256 276 290 287 292 311 320 325